Ludington, MI

11:17 PM EDT on October 22, 2019 (GMT -0400)
Mason County

Weather History for KLDM - May, 2019

Change the Weather History Date:

Monday, May 20, 2019

  Actual Average Record
Temperature  
Mean Temperature 46 °F -  
Max Temperature 53 °F 68 °F 90 °F (2012)
Min Temperature 40 °F 44 °F 28 °F (1993)
Degree Days  
Heating Degree Days 18    
Moisture  
Dew Point 39 °F    
Average Humidity 80    
Maximum Humidity 97    
Minimum Humidity 49    
Precipitation  
Precipitation 0.00 in - - ()
Sea Level Pressure  
Sea Level Pressure 29.97 in    
Wind  
Wind Speed 8 mph (NNW)    
Max Wind Speed 22 mph    
Max Gust Speed 29 mph    
Visibility 7 miles    
Events Rain    
Averages and records for this station are not official NWS values.
T = Trace of Precipitation, MM = Missing Value Source: NWS Daily Summary

Daily Weather History Graph

Daily Weather History Graph

Search for Another Location

Airport or City:

Astronomy

May. 20, 2019 Rise Set
Actual Time 6:14 AM EDT 9:10 PM EDT
Civil Twilight 5:40 AM EDT 9:44 PM EDT
Nautical Twilight 4:57 AM EDT 10:27 PM EDT
Astronomical Twilight 4:07 AM EDT 11:18 PM EDT
Moon 11:11 PM EDT (5/20) 7:42 AM EDT (5/20)
Length of Visible Light 16h 03m
Length of Day
14h 55m
Waning Gibbous, 96% of the Moon is Illuminated
May 20
Waning Gibbous
May 26
Last Quarter
Jun 3
New
Jun 10
First Quarter
Jun 17
Full

Hourly Weather History & Observations

Time (EDT) Temp. Windchill Dew Point Humidity Pressure Visibility Wind Dir Wind Speed Gust Speed Precip Events Conditions
12:15 AM 42.8 °F 41.1 °F 41.9 °F 97% 29.72 in 2.0 mi WNW 3.5 mph - N/A   Overcast
12:35 AM 43.0 °F 40.3 °F 42.1 °F 97% 29.73 in 10.0 mi WNW 4.6 mph - N/A   Overcast
12:55 AM 42.8 °F - 41.7 °F 96% 29.74 in 10.0 mi Calm Calm - N/A   Overcast
1:15 AM 43.3 °F 41.7 °F 41.9 °F 95% 29.74 in 10.0 mi West 3.5 mph - N/A   Overcast
1:16 AM 43.2 °F 40.5 °F 41.9 °F 95% 29.74 in 10.0 mi West 4.6 mph - N/A   Overcast
1:35 AM 43.3 °F 39.9 °F 42.1 °F 95% 29.74 in 10.0 mi West 5.8 mph - N/A   Overcast
1:36 AM 43.3 °F 39.2 °F 42.1 °F 95% 29.74 in 10.0 mi West 6.9 mph - N/A   Overcast
1:55 AM 43.2 °F 38.4 °F 42.1 °F 96% 29.75 in 10.0 mi West 8.1 mph - N/A   Overcast
2:15 AM 43.3 °F 39.9 °F 41.9 °F 95% 29.76 in 10.0 mi West 5.8 mph - N/A   Overcast
2:35 AM 43.3 °F 40.7 °F 41.4 °F 93% 29.76 in 7.0 mi West 4.6 mph - N/A   Overcast
2:36 AM 43.3 °F 39.2 °F 41.4 °F 93% 29.76 in 7.0 mi West 6.9 mph - N/A   Overcast
2:55 AM 43.3 °F 39.2 °F 41.4 °F 93% 29.76 in 10.0 mi West 6.9 mph - N/A   Overcast
2:56 AM 43.2 °F 39.0 °F 41.2 °F 93% 29.77 in 10.0 mi West 6.9 mph - N/A   Overcast
3:15 AM 42.8 °F 38.6 °F 41.0 °F 93% 29.77 in 7.0 mi West 6.9 mph - N/A   Overcast
3:35 AM 42.6 °F 38.4 °F 41.4 °F 95% 29.77 in 2.5 mi West 6.9 mph - N/A Rain Light Rain
3:55 AM 42.3 °F 38.6 °F 41.4 °F 97% 29.78 in 4.0 mi West 5.8 mph - N/A Rain Light Rain
4:15 AM 42.4 °F 37.5 °F 41.5 °F 97% 29.78 in 4.0 mi NW 8.1 mph - N/A   Overcast
4:16 AM 42.4 °F 37.5 °F 41.5 °F 97% 29.78 in 4.0 mi WNW 8.1 mph - N/A   Overcast
4:35 AM 42.4 °F 38.1 °F 41.5 °F 97% 29.79 in 10.0 mi WNW 6.9 mph - N/A   Overcast
4:36 AM 42.4 °F 37.5 °F 41.5 °F 97% 29.79 in 10.0 mi West 8.1 mph - N/A   Overcast
4:55 AM 42.3 °F 36.8 °F 41.4 °F 97% 29.79 in 5.0 mi WNW 9.2 mph - N/A   Overcast
5:15 AM 42.1 °F 36.6 °F 41.2 °F 97% 29.79 in 7.0 mi WNW 9.2 mph - N/A   Overcast
5:35 AM 41.9 °F 35.9 °F 41.0 °F 97% 29.80 in 7.0 mi WNW 10.4 mph - N/A   Overcast
5:55 AM 41.5 °F 35.4 °F 40.6 °F 97% 29.81 in 5.0 mi NW 10.4 mph - N/A   Overcast
5:56 AM 41.5 °F 35.9 °F 40.6 °F 97% 29.81 in 5.0 mi NW 9.2 mph - N/A   Overcast
6:15 AM 41.4 °F 35.2 °F 40.5 °F 97% 29.82 in 4.0 mi NW 10.4 mph 16.1 mph N/A   Overcast
6:16 AM 41.4 °F 36.8 °F 40.5 °F 97% 29.82 in 4.0 mi NW 6.9 mph 16.1 mph N/A   Overcast
6:35 AM 41.4 °F 36.2 °F 40.5 °F 97% 29.83 in 1.8 mi WNW 8.1 mph 16.1 mph N/A   Overcast
6:55 AM 41.4 °F 35.7 °F 40.5 °F 97% 29.84 in 2.0 mi NW 9.2 mph - N/A Rain Light Rain
6:56 AM 41.4 °F 34.7 °F 40.5 °F 97% 29.84 in 2.0 mi NW 11.5 mph 18.4 mph N/A Rain Light Rain
7:15 AM 41.2 °F 35.0 °F 40.3 °F 97% 29.85 in 1.5 mi NW 10.4 mph 16.1 mph N/A   Overcast
7:16 AM 41.2 °F 35.5 °F 40.3 °F 97% 29.85 in 1.2 mi NW 9.2 mph 16.1 mph N/A   Overcast
7:35 AM 41.0 °F 36.4 °F 40.1 °F 97% 29.86 in 1.5 mi NW 6.9 mph - N/A   Overcast
7:36 AM 41.0 °F 35.2 °F 40.1 °F 97% 29.86 in 1.2 mi NW 9.2 mph - N/A   Overcast
7:55 AM 41.0 °F 35.8 °F 40.1 °F 97% 29.87 in 2.0 mi NW 8.1 mph - N/A   Overcast
8:15 AM 41.0 °F 35.8 °F 40.1 °F 97% 29.87 in 1.5 mi NW 8.1 mph 17.3 mph N/A   Overcast
8:35 AM 41.0 °F 33.5 °F 39.7 °F 95% 29.88 in 1.8 mi NW 13.8 mph 19.6 mph N/A   Overcast
8:55 AM 41.0 °F 35.8 °F 39.7 °F 95% 29.90 in 1.2 mi NNW 8.1 mph 20.7 mph N/A   Unknown
8:56 AM 41.0 °F 35.2 °F 39.9 °F 96% 29.90 in 1.2 mi NW 9.2 mph 20.7 mph N/A   Unknown
9:15 AM 41.2 °F 34.1 °F 40.1 °F 96% 29.91 in 1.5 mi NW 12.7 mph 20.7 mph N/A   Overcast
9:16 AM 41.2 °F 34.1 °F 40.1 °F 96% 29.91 in 1.5 mi NW 12.7 mph 20.7 mph N/A   Overcast
9:35 AM 41.5 °F 35.0 °F 40.1 °F 95% 29.92 in 2.5 mi NNW 11.5 mph 21.9 mph N/A   Overcast
9:36 AM 41.5 °F 35.4 °F 40.1 °F 95% 29.92 in 2.5 mi NNW 10.4 mph 21.9 mph N/A   Overcast
9:55 AM 41.9 °F 35.0 °F 40.1 °F 93% 29.93 in 4.0 mi NW 12.7 mph 19.6 mph N/A   Overcast
10:15 AM 42.6 °F 35.6 °F 41.0 °F 94% 29.95 in 1.5 mi NNW 13.8 mph 18.4 mph N/A   Overcast
10:35 AM 42.8 °F 35.8 °F 41.0 °F 93% 29.96 in 1.5 mi NNW 13.8 mph 19.6 mph N/A   Overcast
10:55 AM 42.4 °F 35.7 °F 41.0 °F 95% 29.97 in 1.5 mi North 12.7 mph 17.3 mph N/A   Overcast
10:56 AM 42.4 °F 35.7 °F 40.8 °F 94% 29.97 in 1.5 mi NNW 12.7 mph 17.3 mph N/A   Overcast
11:15 AM 42.3 °F 34.4 °F 40.8 °F 95% 29.99 in 2.0 mi North 16.1 mph 21.9 mph N/A   Overcast
11:16 AM 42.3 °F 34.4 °F 40.6 °F 94% 29.99 in 2.0 mi North 16.1 mph 21.9 mph N/A   Overcast
11:35 AM 42.8 °F 36.6 °F 40.6 °F 92% 29.99 in 3.0 mi NNW 11.5 mph 21.9 mph N/A   Overcast
11:36 AM 42.8 °F 36.6 °F 40.5 °F 91% 29.99 in 4.0 mi NNW 11.5 mph 21.9 mph N/A   Overcast
11:55 AM 42.6 °F 35.9 °F 40.3 °F 91% 30.00 in 4.0 mi NNW 12.7 mph 20.7 mph N/A   Overcast
12:15 PM 43.0 °F 36.4 °F 40.8 °F 92% 30.01 in 5.0 mi North 12.7 mph 25.3 mph N/A   Overcast
12:35 PM 43.7 °F 36.6 °F 40.5 °F 88% 30.01 in 10.0 mi North 15.0 mph 25.3 mph N/A   Overcast
12:55 PM 44.1 °F 36.8 °F 39.9 °F 85% 30.01 in 10.0 mi North 16.1 mph 23.0 mph N/A   Overcast
1:15 PM 44.8 °F 37.4 °F 39.9 °F 83% 30.02 in 10.0 mi North 17.3 mph 26.5 mph N/A   Overcast
1:16 PM 45.0 °F 37.4 °F 40.1 °F 83% 30.02 in 10.0 mi North 18.4 mph 26.5 mph N/A   Overcast
1:35 PM 46.6 °F - 39.4 °F 76% 30.04 in 10.0 mi North 16.1 mph 24.2 mph N/A   Overcast
1:36 PM 46.6 °F - 39.4 °F 76% 30.04 in 10.0 mi North 13.8 mph 24.2 mph N/A   Overcast
1:55 PM 48.4 °F - 40.8 °F 75% 30.05 in 10.0 mi North 16.1 mph 27.6 mph N/A   Overcast
1:56 PM 48.6 °F - 41.0 °F 75% 30.05 in 10.0 mi NNW 19.6 mph 27.6 mph N/A   Overcast
2:15 PM 48.4 °F - 39.4 °F 71% 30.05 in 10.0 mi North 12.7 mph 26.5 mph N/A   Overcast
2:35 PM 49.8 °F - 39.4 °F 67% 30.05 in 10.0 mi North 19.6 mph 28.8 mph N/A   Mostly Cloudy
2:55 PM 50.0 °F - 39.0 °F 66% 30.07 in 10.0 mi North 19.6 mph 27.6 mph N/A   Mostly Cloudy
2:56 PM 50.4 °F - 39.4 °F 66% 30.07 in 10.0 mi North 21.9 mph 27.6 mph N/A   Scattered Clouds
3:15 PM 49.5 °F - 37.4 °F 63% 30.08 in 10.0 mi North 13.8 mph 23.0 mph N/A   Scattered Clouds
3:16 PM 49.6 °F - 37.4 °F 63% 30.08 in 10.0 mi North 12.7 mph 23.0 mph N/A   Scattered Clouds
3:35 PM 50.7 °F - 37.4 °F 60% 30.07 in 10.0 mi North 19.6 mph 27.6 mph N/A   Scattered Clouds
3:36 PM 50.9 °F - 37.2 °F 59% 30.07 in 10.0 mi North 21.9 mph 27.6 mph N/A   Scattered Clouds
3:55 PM 51.1 °F - 37.4 °F 60% 30.09 in 10.0 mi North 13.8 mph 24.2 mph N/A   Scattered Clouds
4:15 PM 52.3 °F - 37.9 °F 58% 30.08 in 10.0 mi NNW 20.7 mph 26.5 mph N/A   Scattered Clouds
4:35 PM 53.1 °F - 38.3 °F 57% 30.09 in 10.0 mi North 10.4 mph 19.6 mph N/A   Scattered Clouds
4:55 PM 52.7 °F - 37.0 °F 55% 30.09 in 10.0 mi North 11.5 mph 18.4 mph N/A   Clear
4:56 PM 52.5 °F - 36.9 °F 55% 30.09 in 10.0 mi North 10.4 mph 18.4 mph N/A   Clear
5:15 PM 52.2 °F - 36.3 °F 55% 30.09 in 10.0 mi NNE 13.8 mph 21.9 mph N/A   Clear
5:16 PM 52.3 °F - 36.3 °F 54% 30.09 in 10.0 mi North 12.7 mph 21.9 mph N/A   Clear
5:35 PM 52.9 °F - 36.7 °F 54% 30.09 in 10.0 mi North 19.6 mph 25.3 mph N/A   Clear
5:55 PM 52.5 °F - 36.1 °F 54% 30.10 in 10.0 mi North 17.3 mph 21.9 mph N/A   Clear
6:15 PM 52.9 °F - 36.0 °F 53% 30.10 in 10.0 mi NNE 10.4 mph 20.7 mph N/A   Clear
6:16 PM 53.1 °F - 36.0 °F 52% 30.10 in 10.0 mi North 10.4 mph 20.7 mph N/A   Clear
6:35 PM 52.9 °F - 35.2 °F 51% 30.10 in 10.0 mi NNE 9.2 mph 18.4 mph N/A   Clear
6:36 PM 52.9 °F - 35.1 °F 51% 30.10 in 10.0 mi North 9.2 mph 18.4 mph N/A   Clear
6:55 PM 52.9 °F - 35.2 °F 51% 30.11 in 10.0 mi North 6.9 mph 19.6 mph N/A   Clear
7:15 PM 53.4 °F - 35.1 °F 50% 30.12 in 10.0 mi NNE 6.9 mph 18.4 mph N/A   Clear
7:35 PM 53.1 °F - 34.3 °F 49% 30.13 in 10.0 mi NNE 6.9 mph - N/A   Clear
7:55 PM 52.7 °F - 34.2 °F 49% 30.15 in 10.0 mi North 10.4 mph - N/A   Clear
7:56 PM 52.7 °F - 34.2 °F 49% 30.15 in 10.0 mi North 11.5 mph - N/A   Clear
8:15 PM 51.8 °F - 34.5 °F 52% 30.15 in 10.0 mi North 8.1 mph - N/A   Clear
8:16 PM 51.8 °F - 34.5 °F 52% 30.15 in 10.0 mi North 6.9 mph - N/A   Clear
8:35 PM 51.1 °F - 34.3 °F 53% 30.14 in 10.0 mi Calm Calm - N/A   Clear
8:36 PM 51.1 °F - 34.5 °F 53% 30.14 in 10.0 mi North 3.5 mph - N/A   Clear
8:55 PM 47.8 °F - 35.1 °F 61% 30.14 in 10.0 mi North 3.5 mph - N/A   Clear
9:15 PM 47.1 °F - 35.2 °F 63% 30.13 in 10.0 mi North 4.6 mph - N/A   Clear
9:35 PM 46.4 °F 45.2 °F 35.2 °F 65% 30.13 in 10.0 mi North 3.5 mph - N/A   Clear
9:36 PM 46.4 °F 45.2 °F 35.2 °F 65% 30.13 in 10.0 mi North 3.5 mph - N/A   Clear
9:55 PM 45.9 °F - 35.6 °F 67% 30.13 in 10.0 mi Calm Calm - N/A   Clear
9:56 PM 45.9 °F - 35.6 °F 67% 30.13 in 10.0 mi Calm Calm - N/A   Clear
10:15 PM 44.1 °F - 35.8 °F 73% 30.14 in 10.0 mi Calm Calm - N/A   Clear
10:35 PM 42.3 °F - 36.5 °F 80% 30.15 in 10.0 mi Calm Calm - N/A   Clear
10:55 PM 42.3 °F - 36.5 °F 80% 30.14 in 10.0 mi Calm Calm - N/A   Clear
11:15 PM 43.0 °F - 36.0 °F 76% 30.15 in 10.0 mi Calm Calm - N/A   Clear
11:16 PM 43.0 °F - 36.0 °F 76% 30.15 in 10.0 mi Calm Calm - N/A   Clear
11:35 PM 41.4 °F - 36.0 °F 81% 30.15 in 10.0 mi Calm Calm - N/A   Clear
11:36 PM 41.2 °F - 36.0 °F 82% 30.15 in 10.0 mi Calm Calm - N/A   Clear
11:55 PM 40.3 °F - 37.0 °F 88% 30.15 in 10.0 mi Calm Calm - N/A   Clear
11:56 PM 40.3 °F - 37.0 °F 88% 30.15 in 10.0 mi Calm Calm - N/A   Clear